Tracking 18871 objects as of 13-Dec-2017
HD Live streaming from Space Station
objects crossing your sky now

COSMOS 2285

Track COSMOS 2285 now!
10-day predictions
COSMOS 2285 is classified as:


NORAD ID: 23189
Int'l Code: 1994-045A
Perigee: 980.1 km
Apogee: 1,017.0 km
Inclination: 74.0 °
Period: 104.9 minutes
Semi major axis: 7369 km
RCS: 1.9645 m2 (large)
Launch date: August 2, 1994
Source: Commonwealth of Independent States (former USSR) (CIS)
Launch site: PLESETSK MISSILE AND SPACE COMPLEX (PKMTR)
aabbcc
Your satellite tracking list
Your tracking list is empty




NASA's NSSDC Master Catalog

Two Line Element Set (TLE):
1 23189U 94045A   17346.88894387 -.00000000  00000-0  23815-4 0  9995
2 23189  74.0278 209.3749 0025067 164.9161 287.8020 13.72275480170290
Source of the keplerian elements: AFSPC